Regional Weather Roundup
Issued by NWS

Home | Current Version | Previous Version | Text Only | Print | Product List | Glossary On
Versions: 1 2 3 4 5 6 7 8 9 10 11 12 13 14 15 16 17 18 19 20 21 22 23 24 25 26 27 28 29 30 31 32 33 34 35 36 37 38 39 40 41 42 43 44 45 46 47 48 49 50
000
ASUS43 KOAX 241210
RWRNE

WEATHER ROUNDUP FOR NEBRASKA
NATIONAL WEATHER SERVICE OMAHA NE
700 AM CDT FRI MAR 24 2017

NOTES: SATELLITE DATA IS BEING USED TO AUGMENT CLOUD COVER ABOVE
       12000 FEET.
       "FAIR" INDICATES FEW OR NO CLOUDS BELOW 12,000 FEET WITH NO
       SIGNIFICANT WEATHER AND/OR OBSTRUCTIONS TO VISIBILITY.

  * THESE STATIONS DO NOT REPORT WEATHER SUCH AS RAIN...SNOW OR FOG.

NEZ001>004-019>022-054>056-241300-
NEBRASKA PANHANDLE

CITY           SKY/WX    TMP DP  RH WIND       PRES   REMARKS
SCOTTSBLUFF    CLOUDY    42  35  76 N15G23    30.03R
6HR MIN TEMP:  41; 6HR MAX TEMP:  43; 6HR PCP: TRACE;

ALLIANCE       CLOUDY    38  36  92 N18       29.97R WCI  28
6HR MIN TEMP:  38; 6HR MAX TEMP:  42;

CHADRON        CLOUDY    38  34  85 NW8       30.04R WCI  32
6HR MIN TEMP:  37; 6HR MAX TEMP:  43;

KIMBALL        CLOUDY    38  38 100 N25G35    29.96R WCI  27
SIDNEY         LGT RAIN  40  38  93 N24G37    29.93R WCI  29
6HR MIN TEMP:  40; 6HR MAX TEMP:  45; 6HR PCP:  0.01;

$$

NEZ057>060-069>072-079>082-241300-
SOUTHWEST NEBRASKA

CITY           SKY/WX    TMP DP  RH WIND       PRES   REMARKS
NORTH PLATTE   LGT RAIN  45  41  86 N21G29    29.85R
6HR MIN TEMP:  45; 6HR MAX TEMP:  52; 6HR PCP:  0.23;

IMPERIAL       LGT RAIN  45  43  93 N31G40    29.80R FOG
6HR MIN TEMP:  45; 6HR MAX TEMP:  53; 6HR PCP:  0.55;

LEXINGTON      LGT RAIN  48  44  87 N22G32    29.80R
MCCOOK         CLOUDY    49  47  93 NE30G37   29.74R
6HR MIN TEMP:  49; 6HR MAX TEMP:  67;

OGALLALA       RAIN      43  41  92 N28G33    29.86R
$$

NEZ005>010-023>029-035>040-094-241300-
NORTH CENTRAL NEBRASKA

CITY           SKY/WX    TMP DP  RH WIND       PRES   REMARKS
VALENTINE      CLOUDY    41  36  82 N16G23    29.96R
6HR MIN TEMP:  41; 6HR MAX TEMP:  45; 6HR PCP:  0.03;

AINSWORTH      CLOUDY    39  39  98 N10       29.94R WCI  32
BROKEN BOW     CLOUDY    43  40  89 N22G28    29.85R
6HR MIN TEMP:  43; 6HR MAX TEMP:  54; 6HR PCP:  0.04;

O`NEILL        CLOUDY    39  38  95 N20       29.89R WCI  30
ORD            LGT RAIN  42  38  85 N25G32    29.85R
6HR MIN TEMP:  43; 6HR MAX TEMP:  54; 6HR PCP:  0.22;

THEDFORD       LGT RAIN  40  38  91 N8        29.93R
$$

NEZ041-046>049-061>064-073>077-083>087-241300-
SOUTH CENTRAL NEBRASKA

CITY           SKY/WX    TMP DP  RH WIND       PRES   REMARKS
GRAND ISLAND   CLOUDY    48  48 100 N21G29    29.79R
6HR MIN TEMP:  48; 6HR MAX TEMP:  58; 6HR PCP:  0.16;

AURORA         CLOUDY    54  53  97 N17G24    29.77R
HASTINGS       CLOUDY    54  52  93 NE16      29.77R
6HR MIN TEMP:  54; 6HR MAX TEMP:  62; 6HR PCP:  0.11;

HEBRON         CLOUDY    56  55  94 NE5       29.72R
HOLDREGE       RAIN      52  50  92 N24G31    29.76R
KEARNEY *      CLOUDY    48  45  87 N24G30    29.80R
YORK           CLOUDY    54  54 100 N15       29.77R
$$

NEZ011>018-030>034-042>045-241300-
NORTHEAST NEBRASKA

CITY           SKY/WX    TMP DP  RH WIND       PRES   REMARKS
NORFOLK        CLOUDY    44  41  89 N12       29.84R
6HR MIN TEMP:  44; 6HR MAX TEMP:  54; 6HR PCP:  0.27;

ALBION         DRIZZLE   46  42  87 N15       29.84R
BLAIR          RAIN      54  53  97 NE15      29.72F
FREMONT        LGT RAIN  51  51  99 N10G17    29.77F
TEKAMAH        LGT RAIN  50  48  93 N8        29.83R FOG
6HR MIN TEMP:  50; 6HR MAX TEMP:  65; 6HR PCP:  0.21;

WAYNE          CLOUDY    44  44  99 N12       29.84R
$$

NEZ050>053-065>068-078-088>093-241300-
SOUTHEAST NEBRASKA

CITY           SKY/WX    TMP DP  RH WIND       PRES   REMARKS
LINCOLN        CLOUDY    55  54  96 NE8       29.75R
6HR MIN TEMP:  55; 6HR MAX TEMP:  69; 6HR PCP:  0.08;

OMAHA EPPLEY   LGT RAIN  52  49  89 NE13      29.73F FOG
6HR MIN TEMP:  53; 6HR MAX TEMP:  71; 6HR PCP:  0.08;

BEATRICE       CLOUDY    57  55  93 CALM      29.73R
FALLS CITY     CLOUDY    66  48  52 S8        29.75R
6HR MIN TEMP:  65; 6HR MAX TEMP:  67;

NEBRASKA CITY  CLOUDY    60  45  57 CALM      29.75F
PLATTSMOUTH    LGT RAIN  58  52  80 NE5       29.74F
$$

NEZ044-045-051>053-067-241300-
OMAHA AREA

CITY           SKY/WX    TMP DP  RH WIND       PRES   REMARKS
OMAHA EPPLEY   LGT RAIN  52  49  89 NE13      29.73F FOG
6HR MIN TEMP:  53; 6HR MAX TEMP:  71; 6HR PCP:  0.08;

BLAIR          RAIN      54  53  97 NE15      29.72F
FREMONT        LGT RAIN  51  51  99 N10G17    29.77F
MILLARD        LGT RAIN  57  56  94 NE3       29.75F
OFFUTT AFB     LGT RAIN  56  54  94 NE9       29.73F
PLATTSMOUTH    LGT RAIN  58  52  80 NE5       29.74F
WAHOO          CLOUDY    55  53  93 CALM      29.79R
$$




USA.gov is the U.S. government's official web portal to all federal, state and local government web resources and services.